Location: Umburanas
(4.5000°S, 37.9667°W)
Time: 05:18:09
(UTC+00:00)

Cosmos 2322 Rocket - Pass Details

Date: 19 November 2019
Orbit: 832 x 851 km, 71.0° (Epoch: 10 December)

Event Time Altitude Azimuth Distance (km) Brightness Sun altitude
Rises 20:48:17 0° 205° (SSW) 3,385 6.1 -5.8°
Reaches altitude 10° 20:50:47 10° 210° (SSW) 2,446 5.4 -6.3°
Maximum altitude 20:56:12 51° 285° (WNW) 1,036 3.1 -7.6°
Drops below altitude 10° 21:01:35 10° 360° (N) 2,428 4.4 -8.9°
Sets 21:04:04 0° 5° (N) 3,358 5.1 -9.5°
